This demonstration page uses our WeatherBlox Daily Observations layout. Learn more.

39.92423, -83.80882

Hourly Observations for May 25, 2015

Temp ( °F °C ) Dew Point ( °F °C ) Humidity (%) Winds ( mph kmh ) Pressure ( in mb ) Visibility ( mi km ) Precip ( " mm )
12:56 am 00:56 Clear 69 20.5 54 12.2 59 59 SSE 7 11 30.12 1020 7 11.26538 0 0
1:56 am 01:56 Clear 69 20.5 54 12.2 59 59 S 6 9 30.11 1020 7 11.26538 0 0
2:56 am 02:56 Hazy 68 20 54 12.2 61 61 SSE 8 13 30.09 1019 6 9.65604 0 0
3:56 am 03:56 Clear 67 19.4 54 12.2 63 63 S 7 11 30.09 1019 7 11.26538 0 0
4:56 am 04:56 Partly Cloudy 68 20 55 12.7 63 63 S 8 13 30.09 1019 7 11.26538 0 0
5:56 am 05:56 Clear 70 21.1 56 13.3 61 61 S 8 13 30.08 1019 7 11.26538 0 0
6:56 am 06:56 Hazy 71 21.6 57 13.8 61 61 SSW 10 17 30.09 1019 5 8.0467 0 0
7:56 am 07:56 Hazy 70 21.1 58 14.4 66 66 SSW 12 19 30.11 1020 5 8.0467 0 0
8:56 am 08:56 Hazy 73 22.7 58 14.4 60 60 SSW 13 20 30.11 1020 5 8.0467 0 0
9:56 am 09:56 Hazy 74 23.3 59 15 60 60 SSW 21 33 30.12 1020 5 8.0467 0 0
10:56 am 10:56 Hazy 71 21.6 65 18.3 82 82 SSW 24 39 30.13 1020 4 6.43736 0 0
11:56 am 11:56 Hazy 71 21.6 63 17.2 76 76 SSW 15 24 30.12 1020 5 8.0467 0 0
12:56 pm 12:56 Hazy 72 22.2 63 17.2 73 73 SSW 24 39 30.13 1020 5 8.0467 0 0
1:47 pm 13:47 Mostly Cloudy with Haze 75 24 64 18 69 69 SSW 17 28 30.12 1020 5 8.0467 0 0
1:56 pm 13:56 Mostly Cloudy with Haze 74 23.3 64 17.7 71 71 SW 26 43 30.13 1020 5 8.0467 0 0
2:56 pm 14:56 Mostly Cloudy with Haze 73 22.7 64 17.7 73 73 SW 18 30 30.14 1021 5 8.0467 0 0
3:41 pm 15:41 Hazy 75 24 64 18 69 69 SSW 15 24 30.12 1020 5 8.0467 0 0
3:56 pm 15:56 Hazy 76 24.4 64 17.7 66 66 SSW 22 35 30.11 1020 5 8.0467 0 0
4:56 pm 16:56 Hazy 77 25 64 17.7 64 64 SSW 14 22 30.09 1019 5 8.0467 0 0
5:56 pm 17:56 Mostly Cloudy with Haze 78 25.5 63 17.2 60 60 SSW 15 24 30.08 1019 5 8.0467 0 0
6:56 pm 18:56 Mostly Cloudy with Haze 78 25.5 64 17.7 62 62 SW 22 35 30.08 1019 5 8.0467 0 0
7:56 pm 19:56 Hazy 75 23.8 64 17.7 69 69 SSW 14 22 30.09 1019 5 8.0467 0 0
8:56 pm 20:56 Hazy 73 22.7 64 17.7 73 73 S 7 11 30.09 1019 5 8.0467 0 0
9:56 pm 21:56 Partly Cloudy 71 21.6 64 17.7 79 79 S 6 9 30.09 1019 7 11.26538 0 0
10:56 pm 22:56 Mostly Cloudy 69 20.5 64 17.7 84 84 SSW 5 7 30.11 1020 7 11.26538 0 0
11:56 pm 23:56 Clear 69 20.5 64 17.7 84 84 SSE 7 11 30.12 1020 7 11.26538 0 0

Powered by AerisWeather